ATLAS 5 CENTAUR DEB, 44679

Orbit data source: Space-Track

ATLAS 5 CENTAUR DEB, 44679 is space debris in HEO originally from a launch on Wed, 17 Oct 2018 UTC launched from the Air Force Eastern Test Range (AFETR). Debris objects in space refer to the collection of defunct objects orbiting the Earth. Examples of debris include non-operational satellites, rocket bodies, and fragments generated from explosions, collisions, or faulty payload assembly.

Loading next visibility...
Identifier
44679, 2018-079AR
Orbit
HEO
Country
Flag of USUS
Related business
Flag of USUnited Launch Alliance/Lockheed Martin (US)
Manufacturer
ULA Decatur
Mission
Spacecraft
Bus & Motor
Unknown
Mass
Unknown
Launch date (UTC)
2018-10-17 (7 years ago)
Launch vehicle
Unknown
Launch site
Air Force Eastern Test Range (AFETR)
Object type
Payload
Rocket body
Debris
Shape & HBR
Unknown shape, 1.1 m
Radar Cross Section
RCS unknown

Expand to show TLE details & history
Last TLE update: 2 days ago

TLE from 2 days ago
0 ATLAS 5 CENTAUR DEB
1 44679U 18079AR  25347.50788603 -.00000084  00000-0  00000-0 0  9996
2 44679  13.2332  54.4531 4689725 273.8182  35.7267  1.79402049 43340
Epoch: 2025-12-13T12:11Z
TLE epoch observation values (Epoch: 2025-12-13T12:11:21.352Z)
Latitude
-0°
Longitude
149.11782°
Altitude
15,289.185 km
Speed
4.781 km/s
True Right ascension
03h 37m 33s
True Declination
0° 00' 00"
Sunlit
Object was in daylight at epoch
Visualization orbit readout
Latitude
Unknown
Longitude
Unknown
Altitude
Unknown
Speed
Unknown
Apparent Right ascension
Unknown
Apparent Declination
Unknown
Sunlit
N/A
Visualization observer readout
Local Sidereal Time
09:50:16
Azimuth
Unknown
Elevation
Unknown
Doppler factor
Unknown
Orbital elements
Apogee altitude
35,652.125 km
Perigee altitude
8,815.629 km
Semi-major axis
28,612.014 km
Eccentricity
0.46897
Inclination
13.2332°
RAAN
54.4531°
Arg. of periapsis
273.8182°
True anomaly
86.14672°
Mean anomaly
35.7267°
Eccentric anomaly
58.68166°
Mean motion
0.44846 °/min
Orbital period
802.75 mins
BSTAR
0
Loading maneuver chart data...
Computing Atmospheric mass density...

Documentation

Showing up to 5 results
|